Location: High Halden
(51.0833°N, 0.7167°E)
Time: 00:43:07
(UTC+00:00)

Daily predictions for brighter satellites

Satellite Brightness Start Highest point End
(mag) Time Altitude Azimuth Time Altitude Azimuth Time Altitude Azimuth
Meteor 1-24 Rocket 3.9 00:02:18 21° SSW 00:06:14 72° WNW 00:11:53 10° N
USA 234 4.0 00:00:12 10° ENE 00:06:33 55° N 00:12:53 10° W
Cosmos 2227 Rocket 2.7 00:05:20 24° S 00:08:28 47° ESE 00:13:53 10° NE
Cosmos 304 Rocket 3.8 00:06:23 22° SSW 00:09:27 76° WNW 00:14:14 10° NNE
Cosmos 1892 2.5 00:09:05 34° S 00:10:26 72° E 00:13:56 10° NNE
Cosmos 332 Rocket 4.1 00:09:47 26° S 00:12:21 57° ESE 00:17:11 10° NNE
Cosmos 2181 Rocket 4.1 00:06:50 10° NNW 00:12:59 66° W 00:16:56 23° S
Cosmos 1980 4.1 00:08:06 10° NW 00:13:32 49° WSW 00:16:41 24° S
CENTAUR R/B 3.2 00:12:18 22° SSE 00:15:22 38° ESE 00:21:40 10° NE
GEOS 3 Rocket 3.8 00:14:06 10° NE 00:19:09 52° SE 00:22:03 24° SSW
H-2A R/B 2.0 00:17:29 10° NNE 00:21:47 83° WNW 00:24:02 27° SSW
Cosmos 1538 Rocket 4.1 00:17:49 10° NNW 00:23:02 74° ENE 00:27:12 16° SSE
Cosmos 1503 Rocket 4.2 00:19:44 20° SW 00:23:32 69° WNW 00:28:50 10° NNE
Cosmos 1777 Rocket 4.1 00:21:13 21° SSW 00:24:45 79° WNW 00:30:04 10° NNE
SL-4 R/B 2.7 00:21:32 10° W 00:25:16 34° SSW 00:26:25 28° S
Cosmos 2151 Rocket 4.1 00:22:47 10° NNW 00:27:01 46° W 00:29:10 25° SSW
Cosmos 1174 4.4 00:23:42 10° NW 00:28:33 48° WSW 00:30:27 28° S
Cosmos 2297 Rocket 2.3 00:24:22 19° SW 00:28:34 76° WNW 00:34:15 10° NNE
Cosmos 2074 Rocket 4.0 00:24:31 23° S 00:28:39 89° E 00:34:55 10° N
NOSS 8 (A) 4.2 00:25:49 10° NW 00:28:44 60° SW 00:30:08 31° SSE
Cosmos 2219 3.9 00:27:36 21° SSE 00:30:49 40° ESE 00:36:01 10° NE
Cosmos 2084 Rocket 3.4 00:29:51 26° SSW 00:32:06 67° SE 00:36:12 10° NE
ALOS 2 4.5 00:30:59 14° SW 00:33:02 19° W 00:36:10 10° NW
Okean 2 Rocket 3.7 00:29:32 10° NNW 00:33:47 44° W 00:36:03 24° SSW
Cosmos 1455 Rocket 3.5 00:30:07 10° N 00:34:31 58° ENE 00:37:36 19° SSE
ATLAS CENTAUR R/B 4.2 00:37:18 10° NW 00:39:03 13° NNW 00:40:49 10° NNE
Aureole 1 Rocket 3.9 00:38:34 21° SSE 00:40:15 32° ESE 00:44:09 10° NE
Cosmos 1825 2.4 00:42:47 27° SW 00:44:18 48° WNW 00:47:39 10° N
Cosmos 1674 Rocket 4.1 00:41:51 22° SW 00:44:24 49° WNW 00:48:38 10° N
Cosmos 1378 Rocket 4.4 00:43:13 20° SW 00:45:50 41° WNW 00:50:02 10° N
Cosmos 1025 Rocket 3.0 00:50:34 25° S 00:53:03 90° WNW 00:57:23 10° N
Cosmos 2221 Rocket 4.3 00:51:16 20° SW 00:53:59 44° WNW 00:58:16 10° N
BREEZE-M DEB (TANK) 2.7 00:51:15 10° W 00:57:18 41° SSW 00:58:59 20° SSE
Resurs 1-4 Rocket 3.9 00:54:17 10° NE 00:58:24 23° E 01:02:30 10° SE
NOSS 3-2 (A) 3.7 00:56:57 21° S 01:00:08 46° ESE 01:06:00 10° NE
Cosmos 1606 3.6 00:57:45 10° N 01:01:10 41° ENE 01:04:04 13° SE
Nadezhda 3 Rocket 4.2 00:55:40 10° NNW 01:01:51 60° W 01:06:12 20° SSW
Cosmos 2263 Rocket 2.7 00:58:49 20° S 01:02:27 49° ESE 01:07:48 10° NE
CZ-4C R/B 2.8 00:58:21 10° WSW 01:03:03 52° NW 01:09:04 10° NE
Cosmos 1898 Rocket 4.0 01:01:19 19° S 01:04:43 48° ESE 01:09:41 10° NNE
COSMOS 2455 3.9 00:59:42 10° WSW 01:05:25 43° NW 01:11:10 10° NNE
Orbus 7S? 2.9 01:03:20 10° WNW 01:06:00 72° NNE 01:09:29 10° ESE
MOZ.5/SAFIR/RUBIN 5/SL-8 4.0 01:05:48 13° SSE 01:09:53 71° ENE 01:14:30 10° N
BlueWalker 3 2.2 01:09:22 10° W 01:13:06 66° N 01:16:51 10° ENE
Helios 1A Rocket 2.7 01:12:04 22° S 01:14:22 69° WSW 01:18:11 10° NNW
Cosmos 1461 4.1 01:14:31 18° SSE 01:16:30 27° ESE 01:19:48 10° ENE
Cosmos 2366 rocket 4.4 01:11:40 14° SSE 01:16:58 58° E 01:23:04 10° NNE
BREEZE-M DEB (TANK) 3.0 01:22:06 10° W 01:25:56 12° SE 01:26:14 10° SE
Cosmos 1680 Rocket 3.5 01:28:13 10° NNW 01:33:27 88° WSW 01:38:39 10° SSE
SL-19 R/B 3.9 01:30:29 10° N 01:33:33 56° WNW 01:35:06 23° SW
In-Cosmos 22 Rocket 4.3 01:29:58 18° SSW 01:34:26 81° WNW 01:40:19 10° N
Cosmos 1818 3.5 01:28:58 10° NW 01:34:27 71° SW 01:39:52 10° SSE
Cosmos 2112 Rocket 4.0 01:30:22 10° NNW 01:35:36 84° ENE 01:40:47 10° SSE
SL-16 R/B 2.8 01:31:53 10° NW 01:37:07 38° WSW 01:41:09 16° SSW
SL-16 R/B 3.7 01:33:53 10° SE 01:39:46 45° ENE 01:45:38 10° N
Cosmos 1603 4.3 01:36:20 10° NNW 01:42:04 62° NE 01:47:45 10° SE
Cosmos 2237 Rocket 4.2 01:41:50 10° WNW 01:43:28 11° W 01:45:06 10° WSW
Cosmos 1869 3.2 01:40:18 10° NNW 01:43:59 63° W 01:46:40 17° S
Cosmos 1544 Rocket 3.6 01:41:41 10° NNW 01:46:09 73° W 01:49:57 14° S
Cosmos 292 Rocket 4.0 01:43:03 17° SW 01:46:44 64° WNW 01:51:32 10° NNE
SL-8 Rocket 4.0 01:43:18 15° SSW 01:48:28 79° W 01:54:42 10° N
USA 234 3.9 01:42:42 10° E 01:49:07 61° NNE 01:55:33 10° WNW
Cosmos 2082 3.7 01:45:35 16° SSW 01:50:10 85° WNW 01:55:50 10° NNE
IDEFIX/ARIANE 42P 2.7 01:45:18 10° NNE 01:50:35 73° ESE 01:55:13 13° S
Cosmos 2228 3.0 01:47:21 10° NNW 01:51:43 84° W 01:55:50 11° S
Cosmos 1943 3.1 01:46:41 10° NNW 01:52:20 80° WSW 01:57:56 10° SSE
Cosmos 2227 Rocket 3.2 01:47:22 10° WSW 01:52:39 39° NW 01:57:58 10° NNE
CZ-2C R/B 3.8 01:50:14 10° NNE 01:55:36 51° E 02:00:38 10° S
H-2A R/B 4.4 01:54:48 10° NNW 01:56:46 13° NW 01:58:43 10° W
Cosmos 1437 Rocket 3.8 01:53:36 10° SSE 01:57:09 38° E 02:00:42 10° NNE
CZ-2C R/B 2.6 01:52:00 10° SSE 01:57:17 85° WSW 02:02:44 10° NNW
CZ-2D R/B 2.5 01:53:19 10° NNE 01:58:39 62° ESE 02:03:47 10° S
Cosmos 1975 Rocket 3.9 01:58:43 15° SW 02:01:59 37° WNW 02:06:07 10° N
Cosmos 1727 Rocket 4.1 01:57:13 10° N 02:03:36 86° E 02:09:58 10° S
COBE Rocket 4.2 02:00:01 10° N 02:05:06 64° WNW 02:09:38 13° SSW
CENTAUR R/B 3.0 01:59:41 10° WSW 02:05:38 62° NW 02:13:05 10° NE
H-2A R/B 3.3 02:04:30 10° NNE 02:08:30 87° WNW 02:12:02 13° SSW
USA 238 DEB 4.3 02:06:34 11° S 02:12:13 42° ESE 02:18:28 10° NE
USA 238 4.4 02:06:36 10° S 02:12:16 42° ESE 02:18:31 10° NE
Cosmos 2297 Rocket 4.2 02:09:21 10° W 02:13:35 21° NW 02:17:50 10° NNE
Cosmos 2219 4.0 02:09:34 10° WSW 02:14:56 44° NW 02:20:19 10° NNE
NPP 3.7 02:09:42 10° NNE 02:15:07 78° WNW 02:20:16 11° SSW
ASTEX 1 3.7 02:16:43 10° SSE 02:21:32 67° E 02:26:22 10° N
Cosmos 1606 Rocket 3.8 02:17:13 10° N 02:21:42 76° E 02:26:07 10° SSE
Aureole 1 Rocket 4.4 02:20:09 10° WSW 02:23:28 28° NW 02:27:31 10° N
Cosmos 1867 4.4 02:18:42 10° S 02:23:50 44° ESE 02:29:02 10° NE
Cosmos 921 Rocket 3.0 02:19:40 10° NNW 02:23:57 88° ENE 02:28:08 10° SSE
Cosmos 2227 4.4 02:18:50 11° SSW 02:24:21 75° ESE 02:30:07 10° NNE
ADEOS II 2.3 02:20:34 10° NNE 02:25:49 71° ESE 02:31:03 10° S
Cosmos 494 Rocket 4.0 02:22:06 10° NNW 02:27:21 79° WSW 02:32:36 10° SSE
Cosmos 1536 Rocket 3.7 02:27:08 10° SSW 02:31:27 63° WNW 02:35:52 10° N
Cosmos 1900 4.5 02:28:54 11° SSW 02:33:54 83° SE 02:39:01 10° NE
Cosmos 1844 4.5 02:28:42 10° S 02:34:12 49° ESE 02:39:47 10° NE
Cosmos 1606 4.4 02:33:12 10° NW 02:35:33 17° W 02:37:55 10° SW
Cosmos 1726 Rocket 3.7 02:32:50 10° N 02:37:18 82° ENE 02:41:44 10° SSE
Resurs 1-4 Rocket 2.3 02:33:24 10° N 02:38:38 64° WNW 02:43:51 10° SSW
Cosmos 724 4.3 02:36:36 10° NW 02:42:27 89° NE 02:48:18 10° SE
Cosmos 1937 Rocket 4.3 02:38:32 10° SW 02:43:32 42° WNW 02:48:32 10° NNE
Iridium 4 Rocket 4.1 02:41:47 10° N 02:46:03 49° E 02:50:37 10° SSE
Cosmos 2263 Rocket 3.2 02:41:22 10° WSW 02:46:32 37° NW 02:51:42 10° NNE
NOSS 3-2 (A) 4.1 02:45:34 10° WSW 02:50:55 49° NNW 02:57:23 10° NE
BlueWalker 3 2.2 02:47:45 10° WNW 02:51:30 71° NNE 02:55:15 10° E
Cosmos 1812 2.7 02:48:49 10° N 02:52:25 76° E 02:55:59 10° SSE
Cosmos 1821 Rocket 4.3 02:46:40 10° SSW 02:52:37 55° WNW 02:58:41 10° N
CZ-4C R/B 4.3 02:48:08 10° WNW 02:52:51 28° N 02:58:36 10° NE
Cosmos 1461 3.5 02:50:42 10° WSW 02:54:30 45° NW 02:58:15 10° NNE
USA 267 3.8 02:48:25 10° ENE 02:54:42 48° SE 03:00:58 10° SSW
Cosmos 2058 3.9 02:51:25 10° SSE 02:55:17 45° E 02:59:12 10° NNE
NOSS 3-2 (C) 3.5 02:51:06 10° SW 02:56:30 74° NW 03:03:03 10° NE
BREEZE M DEB (TANK) 4.3 02:42:07 10° W 02:57:15 75° SSW 03:01:25 10° ESE
AQUA 3.9 02:53:11 10° NNE 02:57:56 77° WNW 03:02:38 10° SSW
Cosmos 1607 4.0 02:53:09 10° NW 02:59:29 62° WSW 03:05:41 10° SSE
SAR-Lupe-4 3.8 02:57:01 10° NNE 03:00:35 68° ESE 03:04:07 10° S
